ProjectID,Date,Electric Generation,Electric Utility Import,Facility Electric Load
,YYYY-MM-DD,kW,kW,kW
170,2014-01-05,-4.3950000000000005,,-4.3950000000000005
170,2014-01-06,101.80983333333334,,101.80983333333334
170,2014-01-07,-4.405083333333333,,-4.405083333333333
170,2014-01-08,-4.980666666666667,,-4.980666666666667
170,2014-01-09,-5.094375,,-5.094375
170,2014-01-10,108.43762500000001,,108.43762500000001
170,2014-01-11,-3.563333333333333,,-3.563333333333333
170,2014-01-12,0.0,,0.0
170,2014-01-13,-5.615833333333334,,-5.615833333333334
170,2014-01-14,127.23158333333333,,127.23158333333333
170,2014-01-15,-6.532416666666666,,-6.532416666666666
170,2014-01-16,-3.8711249999999997,,-3.8711249999999997
170,2014-01-17,14.008416666666667,,14.008416666666667
170,2014-01-18,-1.2707083333333333,,-1.2707083333333333
170,2014-01-19,-1.3041666666666667,,-1.3041666666666667
170,2014-01-20,-1.3040833333333333,,-1.3040833333333333
170,2014-01-21,7.220083333333334,,7.220083333333334
170,2014-01-22,-1.2537916666666666,,-1.2537916666666666
170,2014-01-23,-1.8578333333333334,,-1.8578333333333334
170,2014-01-24,-1.6166666666666665,,-1.6166666666666665
170,2014-01-25,-1.6333333333333335,,-1.6333333333333335
170,2014-01-26,-1.6206250000000002,,-1.6206250000000002
170,2014-01-27,6.2097083333333325,,6.2097083333333325
170,2014-01-28,-1.3458333333333332,,-1.3458333333333332
170,2014-01-29,-1.3165833333333332,,-1.3165833333333332
170,2014-01-30,154.00341666666665,,154.00341666666665
170,2014-01-31,392.2275833333333,,392.2275833333333
170,2014-02-01,387.16491666666667,,387.16491666666667
170,2014-02-02,363.5858333333333,,363.5858333333333
170,2014-02-03,389.8410833333333,,389.8410833333333
170,2014-02-04,399.2998333333333,,399.2998333333333
170,2014-02-05,407.42275,,407.42275
170,2014-02-06,409.3632083333334,,409.3632083333334
170,2014-02-07,375.1911666666667,,375.1911666666667
170,2014-02-08,373.18170833333335,,373.18170833333335
170,2014-02-09,373.1120416666667,,373.1120416666667
170,2014-02-10,395.6197916666667,,395.6197916666667
170,2014-02-11,395.33795833333335,,395.33795833333335
170,2014-02-12,401.11591666666664,,401.11591666666664
170,2014-02-13,325.3379166666667,,325.3379166666667
170,2014-02-14,403.06087499999995,,403.06087499999995
170,2014-02-15,401.9275,,401.9275
170,2014-02-16,230.02691666666666,,230.02691666666666
170,2014-02-17,377.1080416666667,,377.1080416666667
170,2014-02-18,324.4549583333333,,324.4549583333333
170,2014-02-19,409.7438333333334,,409.7438333333334
170,2014-02-20,404.1780833333333,,404.1780833333333
170,2014-02-21,397.32862500000005,,397.32862500000005
170,2014-02-22,389.621625,,389.621625
170,2014-02-23,0.0,,0.0
170,2014-02-24,0.0,,0.0
170,2014-02-25,407.2082083333333,,407.2082083333333
170,2014-02-26,412.69570833333336,,412.69570833333336
170,2014-02-27,390.0645416666667,,390.0645416666667
170,2014-02-28,347.1249583333333,,347.1249583333333
170,2014-03-01,390.8132083333333,,390.8132083333333
170,2014-03-02,387.352375,,387.352375
170,2014-03-03,395.3240416666667,,395.3240416666667
170,2014-03-04,415.5733333333333,,415.5733333333333
170,2014-03-05,417.48387499999995,,417.48387499999995
170,2014-03-06,409.595125,,409.595125
170,2014-03-07,419.7940416666667,,419.7940416666667
170,2014-03-08,405.0257916666667,,405.0257916666667
170,2014-03-09,327.05424999999997,,327.05424999999997
170,2014-03-10,406.77591666666666,,406.77591666666666
170,2014-03-11,394.6249583333333,,394.6249583333333
170,2014-03-12,388.022,,388.022
170,2014-03-13,398.69941666666665,,398.69941666666665
170,2014-03-14,403.7617083333334,,403.7617083333334
170,2014-03-15,403.83816666666667,,403.83816666666667
170,2014-03-16,400.99345833333336,,400.99345833333336
170,2014-03-17,338.774375,,338.774375
170,2014-03-18,0.0,,0.0
170,2014-03-19,284.230875,,284.230875
170,2014-03-20,280.9351666666667,,280.9351666666667
170,2014-03-21,287.016375,,287.016375
170,2014-03-22,290.6226666666667,,290.6226666666667
170,2014-03-23,290.94425,,290.94425
170,2014-03-24,317.45875,,317.45875
170,2014-03-25,316.27241666666663,,316.27241666666663
170,2014-03-26,258.1502083333333,,258.1502083333333
170,2014-03-27,159.10095833333332,,159.10095833333332
170,2014-03-28,288.1820833333333,,288.1820833333333
170,2014-03-29,469.583375,,469.583375
170,2014-03-30,415.2215416666666,,415.2215416666666
170,2014-03-31,417.88979166666667,,417.88979166666667
170,2014-04-01,437.66504166666664,,437.66504166666664
170,2014-04-02,443.99670833333334,,443.99670833333334
170,2014-04-03,425.1236666666667,,425.1236666666667
170,2014-04-04,430.99470833333334,,430.99470833333334
170,2014-04-05,438.6009166666667,,438.6009166666667
170,2014-04-06,433.3564166666667,,433.3564166666667
170,2014-04-07,435.40158333333335,,435.40158333333335
170,2014-04-08,465.25483333333335,,465.25483333333335
170,2014-04-09,460.35908333333333,,460.35908333333333
170,2014-04-10,423.11308333333335,,423.11308333333335
170,2014-04-11,474.76375,,474.76375
170,2014-04-12,474.40124999999995,,474.40124999999995
170,2014-04-13,413.7584583333333,,413.7584583333333
170,2014-04-14,407.303875,,407.303875
170,2014-04-15,470.94795833333336,,470.94795833333336
170,2014-04-16,440.84795833333334,,440.84795833333334
170,2014-04-17,447.0032083333333,,447.0032083333333
170,2014-04-18,410.00220833333333,,410.00220833333333
170,2014-04-19,453.54275,,453.54275
170,2014-04-20,440.15391666666665,,440.15391666666665
170,2014-04-21,425.5065,,425.5065
170,2014-04-22,468.76683333333335,,468.76683333333335
170,2014-04-23,473.1421666666667,,473.1421666666667
170,2014-04-24,463.5668333333333,,463.5668333333333
170,2014-04-25,461.22583333333336,,461.22583333333336
170,2014-04-26,445.2033333333333,,445.2033333333333
170,2014-04-27,323.57712499999997,,323.57712499999997
170,2014-04-28,438.60029166666664,,438.60029166666664
170,2014-04-29,433.13758333333334,,433.13758333333334
170,2014-04-30,426.24079166666667,,426.24079166666667
170,2014-05-01,441.7810416666667,,441.7810416666667
170,2014-05-02,449.95658333333336,,449.95658333333336
170,2014-05-03,442.09566666666666,,442.09566666666666
170,2014-05-04,422.40225000000004,,422.40225000000004
170,2014-05-05,432.49712500000004,,432.49712500000004
170,2014-05-06,457.25512499999996,,457.25512499999996
170,2014-05-07,459.68191666666667,,459.68191666666667
170,2014-05-08,461.60183333333333,,461.60183333333333
170,2014-05-09,475.65183333333334,,475.65183333333334
170,2014-05-10,470.6875416666667,,470.6875416666667
170,2014-05-11,448.184375,,448.184375
170,2014-05-12,454.18966666666665,,454.18966666666665
170,2014-05-13,472.246875,,472.246875
170,2014-05-14,430.5948333333333,,430.5948333333333
170,2014-05-15,473.72795833333333,,473.72795833333333
170,2014-05-16,451.87725,,451.87725
170,2014-05-17,446.64091666666667,,446.64091666666667
170,2014-05-18,442.3840416666667,,442.3840416666667
170,2014-05-19,434.91195833333336,,434.91195833333336
170,2014-05-20,444.81695833333333,,444.81695833333333
170,2014-05-21,470.219625,,470.219625
170,2014-05-22,453.8844583333334,,453.8844583333334
170,2014-05-23,415.07141666666666,,415.07141666666666
170,2014-05-24,437.04275,,437.04275
170,2014-05-25,398.453125,,398.453125
170,2014-05-26,438.16499999999996,,438.16499999999996
170,2014-05-27,466.25191666666666,,466.25191666666666
170,2014-05-28,444.30150000000003,,444.30150000000003
170,2014-05-29,422.31708333333336,,422.31708333333336
170,2014-05-30,434.1251666666667,,434.1251666666667
170,2014-05-31,442.42158333333333,,442.42158333333333
170,2014-06-01,435.55220833333334,,435.55220833333334
170,2014-06-02,450.70358333333337,,450.70358333333337
170,2014-06-03,472.77866666666665,,472.77866666666665
170,2014-06-04,474.70641666666666,,474.70641666666666
170,2014-06-05,473.5512083333333,,473.5512083333333
170,2014-06-06,459.7654583333333,,459.7654583333333
170,2014-06-07,461.71037500000006,,461.71037500000006
170,2014-06-08,431.31554166666666,,431.31554166666666
170,2014-06-09,346.80733333333336,,346.80733333333336
170,2014-06-10,467.42083333333335,,467.42083333333335
170,2014-06-11,469.2969166666667,,469.2969166666667
170,2014-06-12,471.371375,,471.371375
170,2014-06-13,469.6033333333333,,469.6033333333333
170,2014-06-14,0.0,,0.0
170,2014-06-15,404.828,,404.828
170,2014-06-16,467.12224999999995,,467.12224999999995
170,2014-06-17,441.39283333333333,,441.39283333333333
170,2014-06-18,475.259,,475.259
170,2014-06-19,474.7130833333333,,474.7130833333333
170,2014-06-20,473.86691666666667,,473.86691666666667
170,2014-06-21,472.6702083333333,,472.6702083333333
170,2014-06-22,470.25333333333333,,470.25333333333333
170,2014-06-23,474.8294166666667,,474.8294166666667
170,2014-06-24,475.11604166666666,,475.11604166666666
170,2014-06-25,475.3755833333333,,475.3755833333333
170,2014-06-26,475.562375,,475.562375
170,2014-06-27,474.30004166666663,,474.30004166666663
170,2014-06-28,474.60045833333334,,474.60045833333334
170,2014-06-29,474.699875,,474.699875
170,2014-06-30,475.34666666666664,,475.34666666666664
170,2014-07-01,475.5339166666667,,475.5339166666667
170,2014-07-02,476.31016666666665,,476.31016666666665
170,2014-07-03,476.0899583333333,,476.0899583333333
170,2014-07-04,473.89112500000005,,473.89112500000005
170,2014-07-05,469.46345833333334,,469.46345833333334
170,2014-07-06,474.10362499999997,,474.10362499999997
170,2014-07-07,474.958375,,474.958375
170,2014-07-08,468.33441666666664,,468.33441666666664
170,2014-07-09,475.41775,,475.41775
170,2014-07-10,474.412875,,474.412875
170,2014-07-11,474.34070833333334,,474.34070833333334
170,2014-07-12,475.292125,,475.292125
170,2014-07-13,475.53416666666664,,475.53416666666664
170,2014-07-14,475.8620416666667,,475.8620416666667
170,2014-07-15,422.92604166666666,,422.92604166666666
170,2014-07-16,358.714375,,358.714375
170,2014-07-17,473.878,,473.878
170,2014-07-18,472.97812500000003,,472.97812500000003
170,2014-07-19,157.08004166666666,,157.08004166666666
170,2014-07-20,237.56641666666667,,237.56641666666667
170,2014-07-21,472.8921666666667,,472.8921666666667
170,2014-07-22,447.27158333333335,,447.27158333333335
170,2014-07-23,465.97091666666665,,465.97091666666665
170,2014-07-24,473.80775,,473.80775
170,2014-07-25,474.28425,,474.28425
170,2014-07-26,464.84141666666665,,464.84141666666665
170,2014-07-27,466.91787500000004,,466.91787500000004
170,2014-07-28,474.93291666666664,,474.93291666666664
170,2014-07-29,458.7097083333333,,458.7097083333333
170,2014-07-30,472.88275,,472.88275
170,2014-07-31,472.99008333333336,,472.99008333333336
170,2014-08-01,474.39466666666664,,474.39466666666664
170,2014-08-02,473.43825,,473.43825
170,2014-08-03,452.388625,,452.388625
170,2014-08-04,474.18012500000003,,474.18012500000003
170,2014-08-05,457.61870833333336,,457.61870833333336
170,2014-08-06,474.42066666666665,,474.42066666666665
170,2014-08-07,473.2334583333333,,473.2334583333333
170,2014-08-08,473.9463333333333,,473.9463333333333
170,2014-08-09,418.19966666666664,,418.19966666666664
170,2014-08-10,474.8184166666667,,474.8184166666667
170,2014-08-11,473.2146666666667,,473.2146666666667
170,2014-08-12,475.0027083333334,,475.0027083333334
170,2014-08-13,474.87791666666664,,474.87791666666664
170,2014-08-14,470.454375,,470.454375
170,2014-08-15,471.6782083333333,,471.6782083333333
170,2014-08-16,471.87354166666665,,471.87354166666665
170,2014-08-17,452.14408333333336,,452.14408333333336
170,2014-08-18,469.09725000000003,,469.09725000000003
170,2014-08-19,474.1395416666667,,474.1395416666667
170,2014-08-20,474.36858333333333,,474.36858333333333
170,2014-08-21,473.1394583333333,,473.1394583333333
170,2014-08-22,472.25825000000003,,472.25825000000003
170,2014-08-23,472.6129583333333,,472.6129583333333
170,2014-08-24,472.7056666666667,,472.7056666666667
170,2014-08-25,473.531625,,473.531625
170,2014-08-26,369.2695833333333,,369.2695833333333
170,2014-08-27,474.07225,,474.07225
170,2014-08-28,445.52429166666667,,445.52429166666667
170,2014-08-29,472.9393333333333,,472.9393333333333
170,2014-08-30,456.32574999999997,,456.32574999999997
170,2014-08-31,473.94687500000003,,473.94687500000003
170,2014-09-01,474.0864583333334,,474.0864583333334
170,2014-09-02,465.7460833333334,,465.7460833333334
170,2014-09-03,474.16462499999994,,474.16462499999994
170,2014-09-04,408.9515833333333,,408.9515833333333
170,2014-09-05,474.69425,,474.69425
170,2014-09-06,474.81733333333335,,474.81733333333335
170,2014-09-07,384.12433333333337,,384.12433333333337
170,2014-09-08,369.36291666666665,,369.36291666666665
170,2014-09-09,461.93645833333335,,461.93645833333335
170,2014-09-10,473.6757083333334,,473.6757083333334
170,2014-09-11,474.52549999999997,,474.52549999999997
170,2014-09-12,450.3125416666667,,450.3125416666667
170,2014-09-13,443.54004166666664,,443.54004166666664
170,2014-09-14,444.15616666666665,,444.15616666666665
170,2014-09-15,433.59454166666666,,433.59454166666666
170,2014-09-16,440.9499166666667,,440.9499166666667
170,2014-09-17,453.010125,,453.010125
170,2014-09-18,454.18775,,454.18775
170,2014-09-19,457.0663333333334,,457.0663333333334
170,2014-09-20,451.52908333333335,,451.52908333333335
170,2014-09-21,473.066625,,473.066625
170,2014-09-22,467.32116666666667,,467.32116666666667
170,2014-09-23,433.5635,,433.5635
170,2014-09-24,444.344,,444.344
170,2014-09-25,449.38437500000003,,449.38437500000003
170,2014-09-26,451.02095833333334,,451.02095833333334
170,2014-09-27,451.4558333333334,,451.4558333333334
170,2014-09-28,461.6901666666667,,461.6901666666667
170,2014-09-29,472.44604166666664,,472.44604166666664
170,2014-09-30,473.07329166666665,,473.07329166666665
170,2014-10-01,465.670375,,465.670375
170,2014-10-02,432.82395833333334,,432.82395833333334
170,2014-10-03,419.4975833333333,,419.4975833333333
170,2014-10-04,441.21458333333334,,441.21458333333334
170,2014-10-05,423.35987500000005,,423.35987500000005
170,2014-10-06,434.272125,,434.272125
170,2014-10-07,431.62466666666666,,431.62466666666666
170,2014-10-08,440.2936666666667,,440.2936666666667
170,2014-10-09,403.38166666666666,,403.38166666666666
170,2014-10-10,405.29241666666667,,405.29241666666667
170,2014-10-11,401.15366666666665,,401.15366666666665
170,2014-10-12,394.20829166666664,,394.20829166666664
170,2014-10-13,388.20458333333335,,388.20458333333335
170,2014-10-14,434.78704166666665,,434.78704166666665
170,2014-10-15,471.42420833333335,,471.42420833333335
170,2014-10-16,473.037125,,473.037125
170,2014-10-17,466.8260833333333,,466.8260833333333
170,2014-10-18,439.706125,,439.706125
170,2014-10-19,307.36495833333333,,307.36495833333333
170,2014-10-20,334.260875,,334.260875
170,2014-10-21,425.85083333333336,,425.85083333333336
170,2014-10-22,431.98358333333334,,431.98358333333334
170,2014-10-23,406.6213333333333,,406.6213333333333
170,2014-10-24,404.4173333333333,,404.4173333333333
170,2014-10-25,357.3264166666667,,357.3264166666667
170,2014-10-26,386.8385,,386.8385
170,2014-10-27,374.2044583333333,,374.2044583333333
170,2014-10-28,425.65616666666665,,425.65616666666665
170,2014-10-29,440.37583333333333,,440.37583333333333
170,2014-10-30,385.6610416666667,,385.6610416666667
170,2014-10-31,420.247375,,420.247375
170,2014-11-01,396.5949166666667,,396.5949166666667
170,2014-11-02,422.77095833333334,,422.77095833333334
170,2014-11-03,424.38033333333334,,424.38033333333334
170,2014-11-04,411.58608333333336,,411.58608333333336
170,2014-11-05,386.17975,,386.17975
170,2014-11-06,424.15825,,424.15825
170,2014-11-07,419.10987500000005,,419.10987500000005
170,2014-11-08,440.038,,440.038
170,2014-11-09,431.17275,,431.17275
170,2014-11-10,416.04920833333335,,416.04920833333335
170,2014-11-11,404.39912499999997,,404.39912499999997
170,2014-11-12,399.16925,,399.16925
170,2014-11-13,428.1234583333333,,428.1234583333333
170,2014-11-14,403.5235416666667,,403.5235416666667
170,2014-11-15,377.0073333333333,,377.0073333333333
170,2014-11-16,353.09295833333334,,353.09295833333334
170,2014-11-17,324.771,,324.771
170,2014-11-18,367.32412500000004,,367.32412500000004
170,2014-11-19,410.8838333333333,,410.8838333333333
170,2014-11-20,409.5302916666667,,409.5302916666667
170,2014-11-21,426.89691666666664,,426.89691666666664
170,2014-11-22,427.41574999999995,,427.41574999999995
170,2014-11-23,345.72445833333336,,345.72445833333336
170,2014-11-24,211.96833333333333,,211.96833333333333
170,2014-11-25,0.0,,0.0
170,2014-11-26,0.0,,0.0
170,2014-11-27,0.0,,0.0
170,2014-11-28,0.0,,0.0
170,2014-11-29,0.0,,0.0
170,2014-11-30,0.0,,0.0
170,2014-12-01,192.43683333333334,,192.43683333333334
170,2014-12-02,377.38058333333333,,377.38058333333333
170,2014-12-03,126.22112499999999,,126.22112499999999
170,2014-12-04,406.19195833333333,,406.19195833333333
170,2014-12-05,411.35083333333336,,411.35083333333336
170,2014-12-06,406.2382083333334,,406.2382083333334
170,2014-12-07,348.45954166666667,,348.45954166666667
170,2014-12-08,370.747,,370.747
170,2014-12-09,310.776625,,310.776625
170,2014-12-10,417.97866666666664,,417.97866666666664
170,2014-12-11,126.95241666666668,,126.95241666666668
170,2014-12-12,0.0,,0.0
170,2014-12-13,0.0,,0.0
170,2014-12-14,0.0,,0.0
170,2014-12-15,0.0,,0.0
170,2014-12-16,0.0,,0.0
170,2014-12-17,0.0,,0.0
170,2014-12-18,0.0,,0.0
170,2014-12-19,395.0110833333333,,395.0110833333333
170,2014-12-20,393.127625,,393.127625
170,2014-12-21,334.4765,,334.4765
170,2014-12-22,0.0,,0.0
170,2014-12-23,404.0661666666667,,404.0661666666667
170,2014-12-24,403.485125,,403.485125
170,2014-12-25,404.32504166666666,,404.32504166666666
170,2014-12-26,256.835625,,256.835625
170,2014-12-27,407.2175833333333,,407.2175833333333
170,2014-12-28,399.6750833333333,,399.6750833333333
170,2014-12-29,407.92012500000004,,407.92012500000004
170,2014-12-30,417.9134166666667,,417.9134166666667
170,2014-12-31,424.46725,,424.46725
170,2015-01-01,261.33166666666665,,261.33166666666665
170,2015-01-02,0.0,,0.0
170,2015-01-03,0.0,,0.0
170,2015-01-04,0.0,,0.0
170,2015-01-05,142.93329166666666,,142.93329166666666
170,2015-01-06,413.07295833333336,,413.07295833333336
170,2015-01-07,402.62125,,402.62125
170,2015-01-08,403.33141666666666,,403.33141666666666
170,2015-01-09,400.38633333333337,,400.38633333333337
170,2015-01-10,397.34929166666666,,397.34929166666666
170,2015-01-11,345.72904166666666,,345.72904166666666
170,2015-01-12,392.891375,,392.891375
170,2015-01-13,396.7038333333333,,396.7038333333333
170,2015-01-14,409.09458333333333,,409.09458333333333
170,2015-01-15,406.28529166666664,,406.28529166666664
170,2015-01-16,399.845,,399.845
170,2015-01-17,392.1467083333334,,392.1467083333334
170,2015-01-18,384.35762500000004,,384.35762500000004
170,2015-01-19,384.498125,,384.498125
170,2015-01-20,392.782625,,392.782625
170,2015-01-21,406.42587499999996,,406.42587499999996
170,2015-01-22,410.34774999999996,,410.34774999999996
170,2015-01-23,423.24920833333334,,423.24920833333334
170,2015-01-24,416.07183333333336,,416.07183333333336
170,2015-01-25,408.6811666666667,,408.6811666666667
170,2015-01-26,417.2987083333333,,417.2987083333333
170,2015-01-27,427.22112500000003,,427.22112500000003
170,2015-01-28,415.83666666666664,,415.83666666666664
170,2015-01-29,409.9388333333333,,409.9388333333333
170,2015-01-30,405.64520833333336,,405.64520833333336
170,2015-01-31,413.44629166666664,,413.44629166666664
170,2015-02-01,408.6797916666667,,408.6797916666667
170,2015-02-02,414.0969583333333,,414.0969583333333
170,2015-02-03,398.1556666666667,,398.1556666666667
170,2015-02-04,0.0,,0.0
170,2015-02-05,0.0,,0.0
170,2015-02-06,400.2839583333334,,400.2839583333334
170,2015-02-07,388.050125,,388.050125
170,2015-02-08,385.43287499999997,,385.43287499999997
170,2015-02-09,400.482375,,400.482375
170,2015-02-10,397.6165416666667,,397.6165416666667
170,2015-02-11,367.89029166666666,,367.89029166666666
170,2015-02-12,167.12041666666667,,167.12041666666667
170,2015-02-13,407.62804166666666,,407.62804166666666
170,2015-02-14,94.678875,,94.678875
170,2015-02-15,0.0,,0.0
170,2015-02-16,402.1839166666667,,402.1839166666667
170,2015-02-17,397.1419166666667,,397.1419166666667
170,2015-02-18,355.08458333333334,,355.08458333333334
170,2015-02-19,399.7148333333334,,399.7148333333334
170,2015-02-20,397.2225416666667,,397.2225416666667
170,2015-02-21,393.6705833333333,,393.6705833333333
170,2015-02-22,391.4397916666667,,391.4397916666667
170,2015-02-23,413.2908333333333,,413.2908333333333
170,2015-02-24,417.91012500000005,,417.91012500000005
170,2015-02-25,402.6210833333334,,402.6210833333334
170,2015-02-26,405.66254166666664,,405.66254166666664
170,2015-02-27,407.22600000000006,,407.22600000000006
170,2015-02-28,402.73150000000004,,402.73150000000004
170,2015-03-01,365.268625,,365.268625
170,2015-03-02,314.3555833333333,,314.3555833333333
170,2015-03-03,260.1675,,260.1675
170,2015-03-04,371.05766666666665,,371.05766666666665
170,2015-03-05,403.53775,,403.53775
170,2015-03-06,399.9795833333333,,399.9795833333333
170,2015-03-07,397.00541666666663,,397.00541666666663
170,2015-03-08,379.39841666666666,,379.39841666666666
170,2015-03-09,389.1057083333333,,389.1057083333333
170,2015-03-10,391.23858333333334,,391.23858333333334
170,2015-03-11,388.92541666666665,,388.92541666666665
170,2015-03-12,393.7639166666667,,393.7639166666667
170,2015-03-13,403.441625,,403.441625
170,2015-03-14,396.6854583333333,,396.6854583333333
170,2015-03-15,380.738625,,380.738625
170,2015-03-16,391.58166666666665,,391.58166666666665
170,2015-03-17,392.48291666666665,,392.48291666666665
170,2015-03-18,396.345625,,396.345625
170,2015-03-19,401.55850000000004,,401.55850000000004
170,2015-03-20,385.250875,,385.250875
170,2015-03-21,392.39483333333334,,392.39483333333334
170,2015-03-22,295.26025,,295.26025
170,2015-03-23,239.382375,,239.382375
170,2015-03-24,387.4205833333333,,387.4205833333333
170,2015-03-25,400.895,,400.895
170,2015-03-26,391.73125,,391.73125
170,2015-03-27,382.86495833333333,,382.86495833333333
170,2015-03-28,383.4098333333333,,383.4098333333333
170,2015-03-29,375.9058333333333,,375.9058333333333
170,2015-03-30,403.164,,403.164
170,2015-03-31,422.83891666666665,,422.83891666666665
170,2015-04-01,416.85025,,416.85025
170,2015-04-02,411.06962500000003,,411.06962500000003
170,2015-04-03,431.75179166666663,,431.75179166666663
170,2015-04-04,438.8465416666666,,438.8465416666666
170,2015-04-05,417.9830833333333,,417.9830833333333
170,2015-04-06,429.2694583333334,,429.2694583333334
170,2015-04-07,433.2997083333333,,433.2997083333333
170,2015-04-08,435.8676666666667,,435.8676666666667
170,2015-04-09,435.08125,,435.08125
170,2015-04-10,455.258625,,455.258625
170,2015-04-11,423.93604166666665,,423.93604166666665
170,2015-04-12,417.5353333333333,,417.5353333333333
170,2015-04-13,425.0994166666667,,425.0994166666667
170,2015-04-14,382.34612500000003,,382.34612500000003
170,2015-04-15,448.16429166666666,,448.16429166666666
170,2015-04-16,451.4258333333333,,451.4258333333333
170,2015-04-17,457.712,,457.712
170,2015-04-18,461.56554166666666,,461.56554166666666
170,2015-04-19,408.5135416666667,,408.5135416666667
170,2015-04-20,415.4832916666667,,415.4832916666667
170,2015-04-21,435.36491666666666,,435.36491666666666
170,2015-04-22,443.54337499999997,,443.54337499999997
170,2015-04-23,443.45575,,443.45575
170,2015-04-24,428.8326666666667,,428.8326666666667
170,2015-04-25,419.5815416666667,,419.5815416666667
170,2015-04-26,388.125125,,388.125125
170,2015-04-27,392.2755833333333,,392.2755833333333
170,2015-04-28,424.5871666666667,,424.5871666666667
170,2015-04-29,440.1838333333333,,440.1838333333333
170,2015-04-30,427.66704166666665,,427.66704166666665
170,2015-05-01,392.04354166666667,,392.04354166666667